GW0285 Weather Reports


Display with metric or nautical units.
time (UTC)temp
F
wind
direction
speed
MPH
gust
MPH
rain 1hr
in
rain 24hr
in
rain mn
in
humidity
%
barometer
mb
20260507112703 57 0 0.0 0.0 0.00 0.00 0.00 70 1016.0
20260507111803 59 196 0.0 3.0 0.00 0.00 0.00 68 1016.0
20260507110924 59 0 0.0 0.0 0.00 0.00 0.00 65 1015.8
20260507110003 57 0 0.0 0.0 0.00 0.00 0.00 68 1016.0
20260507105403 57 357 0.0 2.0 0.00 0.00 0.00 68 1015.8
20260507104503 56 55 0.0 3.0 0.00 0.00 0.00 69 1016.0
20260507103603 57 55 0.0 3.0 0.00 0.00 0.00 69 1015.8
20260507102723 57 0 0.0 0.0 0.00 0.00 0.00 69 1016.0
20260507101803 57 86 0.0 2.0 0.00 0.00 0.00 65 1015.8
20260507100903 59 42 0.0 2.0 0.00 0.00 0.00 62 1015.8
20260507100002 61 54 0.0 2.0 0.00 0.00 0.00 54 1016.1
20260507095402 59 0 0.0 0.0 0.00 0.00 0.00 57 1015.8
20260507094502 59 267 0.0 2.0 0.00 0.00 0.00 59 1016.2
20260507093624 57 99 0.0 3.0 0.00 0.00 0.00 61 1015.8
20260507092703 58 111 0.0 5.0 0.00 0.00 0.00 61 1016.0
20260507091803 57 77 0.0 2.0 0.00 0.00 0.00 59 1015.9
20260507090902 58 145 1.0 10.0 0.00 0.00 0.00 64 1015.8
20260507090003 58 129 0.0 1.0 0.00 0.00 0.00 64 1016.0
20260507085424 57 119 0.0 3.0 0.00 0.00 0.00 64 1015.9
20260507084502 56 97 0.0 2.0 0.00 0.00 0.00 64 1016.0
20260507083603 56 0 0.0 0.0 0.00 0.00 0.00 65 1016.1
20260507082702 56 302 0.0 3.0 0.00 0.00 0.00 66 1016.0
20260507081803 55 357 0.0 3.0 0.00 0.00 0.00 67 1016.0
20260507080903 56 100 0.0 9.0 0.00 0.00 0.00 66 1015.9
20260507080003 55 0 0.0 0.0 0.00 0.00 0.00 68 1015.9
20260507075403 54 4 0.0 3.0 0.00 0.00 0.00 68 1015.9
20260507074502 56 0 0.0 0.0 0.00 0.00 0.00 69 1015.9
20260507073602 55 135 0.0 2.0 0.00 0.00 0.00 70 1015.8
20260507072723 55 0 0.0 0.0 0.00 0.00 0.00 72 1015.9
20260507071802 54 0 0.0 0.0 0.00 0.00 0.00 74 1016.0
20260507070902 53 0 0.0 0.0 0.00 0.00 0.00 75 1015.6
20260507070003 51 0 0.0 0.0 0.00 0.00 0.00 78 1015.9
20260507065424 51 0 0.0 0.0 0.00 0.00 0.00 78 1015.7
20260507064502 51 0 0.0 0.0 0.00 0.00 0.00 78 1015.6
20260507063602 51 0 0.0 0.0 0.00 0.00 0.00 79 1015.8
20260507062702 50 0 0.0 0.0 0.00 0.00 0.00 80 1015.7
20260507061803 49 0 0.0 0.0 0.00 0.00 0.00 82 1015.6
20260507060903 48 0 0.0 0.0 0.00 0.00 0.00 85 1015.6
20260507060003 47 0 0.0 0.0 0.00 0.00 0.00 91 1015.6
20260507055402 46 0 0.0 0.0 0.00 0.00 0.00 93 1015.5
20260507054503 44 0 0.0 0.0 0.00 0.00 0.00 94 1015.5
20260507053603 44 0 0.0 0.0 0.00 0.00 0.00 94 1015.4
20260507052703 43 0 0.0 0.0 0.00 0.00 0.00 95 1015.6
20260507051802 43 0 0.0 0.0 0.00 0.00 0.00 95 1015.5
20260507050924 42 0 0.0 0.0 0.00 0.00 0.00 94 1015.5
20260507050024 42 0 0.0 0.0 0.00 0.00 0.00 95 1015.5
20260507045403 42 0 0.0 0.0 0.00 0.00 0.00 94 1015.4
20260507044503 42 0 0.0 0.0 0.00 0.00 0.00 94 1015.3
20260507043624 42 0 0.0 0.0 0.00 0.00 0.00 94 1015.5
20260507042703 42 0 0.0 0.0 0.00 0.00 0.00 94 1015.5
20260507041803 42 0 0.0 0.0 0.00 0.00 0.00 94 1015.5
20260507040902 42 0 0.0 0.0 0.00 0.00 0.00 94 1015.3
20260507040024 42 0 0.0 0.0 0.00 0.00 0.00 93 1015.4
20260507035403 42 0 0.0 0.0 0.00 0.00 0.00 93 1015.1
20260507034503 42 0 0.0 0.0 0.00 0.00 0.00 93 1015.2
20260507033603 42 0 0.0 0.0 0.00 0.00 0.00 93 1015.2
20260507032703 42 0 0.0 0.0 0.00 0.00 0.00 93 1015.2
20260507031803 42 0 0.0 0.0 0.00 0.00 0.00 92 1015.2
20260507030903 42 0 0.0 0.0 0.00 0.00 0.00 92 1015.1
20260507030003 43 0 0.0 0.0 0.00 0.00 0.00 92 1015.2
20260507025403 42 0 0.0 0.0 0.00 0.00 0.00 92 1015.1
20260507024524 43 0 0.0 0.0 0.00 0.00 0.00 92 1014.9
20260507023603 43 0 0.0 0.0 0.00 0.00 0.00 91 1015.1
20260507022703 43 0 0.0 0.0 0.00 0.00 0.00 91 1015.2
20260507021803 43 0 0.0 0.0 0.00 0.00 0.00 91 1015.1
20260507020903 43 0 0.0 0.0 0.00 0.00 0.00 90 1014.9
20260507020003 43 0 0.0 0.0 0.00 0.00 0.00 90 1015.0
20260507015424 43 0 0.0 0.0 0.00 0.00 0.00 90 1015.0
20260507014503 43 0 0.0 0.0 0.00 0.00 0.00 89 1015.0
20260507013603 43 0 0.0 0.0 0.00 0.00 0.00 89 1015.1
20260507012724 43 0 0.0 0.0 0.00 0.00 0.00 88 1014.9
20260507011803 43 0 0.0 0.0 0.00 0.00 0.00 88 1014.9
20260507010903 43 0 0.0 0.0 0.00 0.00 0.00 88 1014.8
20260507010003 43 0 0.0 0.0 0.00 0.00 0.00 87 1014.9
20260507005403 43 0 0.0 0.0 0.00 0.00 0.00 87 1015.1
20260507004524 43 0 0.0 0.0 0.00 0.00 0.00 86 1015.0
20260507003603 43 0 0.0 0.0 0.00 0.00 0.00 86 1014.9
20260507002703 43 0 0.0 0.0 0.00 0.00 0.00 86 1014.8
20260507001803 43 0 0.0 0.0 0.00 0.00 0.00 85 1015.1
20260507000903 44 0 0.0 0.0 0.00 0.00 0.00 85 1015.0
20260507000003 44 0 0.0 0.0 0.00 0.00 0.00 84 1014.9
20260506235403 44 0 0.0 0.0 0.00 0.00 0.00 84 1014.9
20260506234503 44 0 0.0 0.0 0.00 0.00 0.00 83 1015.0
20260506233603 45 0 0.0 0.0 0.00 0.00 0.00 82 1014.9
20260506232703 46 0 0.0 0.0 0.00 0.00 0.00 81 1014.8
20260506231803 46 0 0.0 0.0 0.00 0.00 0.00 79 1014.9
20260506230903 47 0 0.0 0.0 0.00 0.00 0.00 78 1014.6
20260506230004 47 0 0.0 0.0 0.00 0.00 0.00 77 1014.6
20260506225403 47 0 0.0 0.0 0.00 0.00 0.00 78 1014.8
20260506224503 47 0 0.0 0.0 0.00 0.00 0.00 77 1014.6
20260506223603 47 0 0.0 0.0 0.00 0.00 0.00 78 1014.5
20260506222703 47 0 0.0 0.0 0.00 0.00 0.00 78 1014.7
20260506221803 47 0 0.0 0.0 0.00 0.00 0.00 78 1014.5
20260506220903 47 0 0.0 0.0 0.00 0.00 0.00 78 1014.7
20260506220003 47 0 0.0 0.0 0.00 0.00 0.00 77 1014.5
20260506215403 48 0 0.0 0.0 0.00 0.00 0.00 76 1014.4
20260506214503 48 0 0.0 0.0 0.00 0.00 0.00 75 1014.5
20260506213603 49 0 0.0 0.0 0.00 0.00 0.00 74 1014.5
20260506212703 50 0 0.0 0.0 0.00 0.00 0.00 73 1014.2
20260506211803 50 338 0.0 3.0 0.00 0.00 0.00 73 1014.3
20260506210903 50 338 0.0 3.0 0.00 0.00 0.00 73 1014.4
20260506210003 50 0 0.0 0.0 0.00 0.00 0.00 74 1014.3
20260506205403 50 0 0.0 0.0 0.00 0.00 0.00 74 1014.1
20260506204503 50 0 0.0 0.0 0.00 0.00 0.00 74 1014.2
20260506203603 50 0 0.0 0.0 0.00 0.00 0.00 73 1014.2
20260506202703 51 0 0.0 0.0 0.00 0.00 0.00 73 1014.0
20260506201803 51 0 0.0 0.0 0.00 0.00 0.00 73 1014.0
20260506200903 51 0 0.0 0.0 0.00 0.00 0.00 73 1014.0
20260506200004 52 0 0.0 0.0 0.00 0.00 0.00 72 1014.0
20260506195403 52 0 0.0 0.0 0.00 0.00 0.00 71 1013.8
20260506193603 53 0 0.0 0.0 0.00 0.00 0.00 69 1013.7
20260506192724 53 0 0.0 0.0 0.00 0.00 0.00 68 1013.7
20260506191824 53 0 0.0 0.0 0.00 0.00 0.00 68 1013.5
20260506190903 54 342 0.0 2.0 0.00 0.00 0.00 66 1013.5
20260506190003 54 0 0.0 0.0 0.00 0.00 0.00 65 1013.3
20260506185403 54 0 0.0 0.0 0.00 0.00 0.00 64 1013.3
20260506184503 54 0 0.0 0.0 0.00 0.00 0.00 63 1013.3
20260506183604 55 0 0.0 0.0 0.00 0.00 0.00 60 1013.2
20260506182703 55 0 0.0 0.0 0.00 0.00 0.00 59 1013.3
20260506181803 55 0 0.0 0.0 0.00 0.00 0.00 58 1013.2
20260506180903 55 312 0.0 2.0 0.00 0.00 0.00 59 1012.9
20260506180004 55 0 0.0 0.0 0.00 0.00 0.00 59 1013.1
20260506175403 55 0 0.0 0.0 0.00 0.00 0.00 59 1012.9
20260506174503 56 0 0.0 0.0 0.00 0.00 0.00 60 1012.9
20260506173603 56 316 0.0 3.0 0.00 0.00 0.00 59 1012.9
20260506172703 56 312 0.0 3.0 0.00 0.00 0.00 59 1012.7
20260506171803 56 0 0.0 0.0 0.00 0.00 0.00 59 1012.6
20260506170903 56 337 0.0 3.0 0.00 0.00 0.00 59 1012.7
20260506170004 56 0 0.0 0.0 0.00 0.00 0.00 56 1012.9
20260506165424 56 322 0.0 7.0 0.00 0.00 0.00 56 1012.7
20260506164503 57 0 0.0 0.0 0.00 0.00 0.00 54 1012.7
20260506163603 57 0 0.0 0.0 0.00 0.00 0.00 56 1012.7
20260506162703 57 31 0.0 9.0 0.00 0.00 0.00 55 1012.8
20260506161803 58 0 0.0 0.0 0.00 0.00 0.00 54 1012.8
20260506160903 57 0 0.0 0.0 0.00 0.00 0.00 52 1012.9
20260506160003 57 0 0.0 0.0 0.00 0.00 0.00 54 1012.7
20260506155403 58 0 0.0 0.0 0.00 0.00 0.00 53 1012.8
20260506154503 58 0 0.0 0.0 0.00 0.00 0.00 54 1013.0
20260506153603 57 331 0.0 2.0 0.00 0.00 0.00 52 1013.2
20260506152703 58 0 0.0 0.0 0.00 0.00 0.00 51 1012.8
20260506151803 58 317 0.0 5.0 0.00 0.00 0.00 54 1013.0
20260506150903 58 360 0.0 3.0 0.00 0.00 0.00 51 1013.0
20260506150024 59 330 0.0 5.0 0.00 0.00 0.00 52 1013.0
20260506145403 58 0 0.0 0.0 0.00 0.00 0.00 52 1012.8
20260506144503 57 318 0.0 9.0 0.00 0.00 0.00 51 1013.1
20260506143624 58 323 0.0 9.0 0.00 0.00 0.00 52 1013.2
20260506142703 57 0 0.0 0.0 0.00 0.00 0.00 53 1013.2
20260506141803 58 303 0.0 7.0 0.00 0.00 0.00 51 1013.2
20260506140903 57 4 0.0 5.0 0.00 0.00 0.00 51 1013.1
20260506140003 58 0 0.0 0.0 0.00 0.00 0.00 50 1013.1
20260506135403 59 316 0.0 2.0 0.00 0.00 0.00 47 1013.3
20260506134525 58 346 0.0 9.0 0.00 0.00 0.00 52 1013.0
20260506133603 60 20 0.0 7.0 0.00 0.00 0.00 47 1013.2
20260506132703 60 291 0.0 3.0 0.00 0.00 0.00 51 1013.0
20260506131803 57 314 0.0 7.0 0.00 0.00 0.00 52 1012.8
20260506130903 59 326 0.0 9.0 0.00 0.00 0.00 52 1012.8
20260506130004 60 341 0.0 2.0 0.00 0.00 0.00 51 1012.8
20260506125403 59 335 0.0 2.0 0.00 0.00 0.00 50 1013.1
20260506124503 61 340 1.0 12.0 0.00 0.00 0.00 52 1013.0
20260506123603 61 324 0.0 7.0 0.00 0.00 0.00 48 1012.8
20260506122703 59 341 1.0 12.0 0.00 0.00 0.00 50 1012.7
20260506121824 58 319 1.0 9.0 0.00 0.00 0.00 53 1012.9
20260506120924 59 318 0.0 7.0 0.00 0.00 0.00 48 1012.9
20260506120003 58 332 1.0 14.0 0.00 0.00 0.00 48 1012.8
20260506115403 57 317 1.0 6.0 0.00 0.00 0.00 50 1013.1
20260506114524 58 301 1.0 10.0 0.00 0.00 0.00 49 1013.0
20260506113603 58 317 0.0 3.0 0.00 0.00 0.00 51 1013.0